Torna al catalogo

STARLINK-1647

AttivoComunicazioniVLEO
NORAD 47978·PAYLOAD·🇺🇸 United States

Lanciato Mar 24, 2021 da Cape Canaveral Space Force Station

Loading…

Prossimi Passaggi (prossime 24 ore)

TLE

AggiornatoSource: CelesTrak SupGP

Epoca: Sep 14, 2026, 21:55 UTC

1 47978C 21024B   26257.91368056 -.00023602  00000+0 -75905-3 0  2574
2 47978  53.1586 171.7812 0001393  96.4117 138.1883 15.31710540    16

Traccia STARLINK-1647 in tempo reale con AllMySat

Download on the App Store